Year,Month,Day,Hour,Minute,Value (Times are PST for temperature in C)
2021,08,24,00,00,13.20
2021,08,24,00,01,13.20
2021,08,24,00,02,13.20
2021,08,24,00,03,13.20
2021,08,24,00,04,13.20
2021,08,24,00,05,13.20
2021,08,24,00,06,13.20
2021,08,24,00,07,13.20
2021,08,24,00,08,13.20
2021,08,24,00,09,13.10
2021,08,24,00,10,13.10
2021,08,24,00,11,13.10
2021,08,24,00,12,13.10
2021,08,24,00,13,13.00
2021,08,24,00,14,13.00
2021,08,24,00,15,13.00
2021,08,24,00,16,12.90
2021,08,24,00,17,12.90
2021,08,24,00,18,12.90
2021,08,24,00,19,12.90
2021,08,24,00,20,12.90
2021,08,24,00,21,12.90
2021,08,24,00,22,12.90
2021,08,24,00,23,12.90
2021,08,24,00,24,12.90
2021,08,24,00,25,12.90
2021,08,24,00,26,12.80
2021,08,24,00,27,12.80
2021,08,24,00,28,12.80
2021,08,24,00,29,12.80
2021,08,24,00,30,12.80
2021,08,24,00,31,12.80
2021,08,24,00,32,12.70
2021,08,24,00,33,12.70
2021,08,24,00,34,12.70
2021,08,24,00,35,12.70
2021,08,24,00,36,12.70
2021,08,24,00,37,12.70
2021,08,24,00,38,12.60
2021,08,24,00,39,12.60
2021,08,24,00,40,12.60
2021,08,24,00,41,12.50
2021,08,24,00,42,12.50
2021,08,24,00,43,12.50
2021,08,24,00,44,12.50
2021,08,24,00,45,12.50
2021,08,24,00,46,12.50
2021,08,24,00,47,12.50
2021,08,24,00,48,12.40
2021,08,24,00,49,12.40
2021,08,24,00,50,12.40
2021,08,24,00,51,12.40
2021,08,24,00,52,12.30
2021,08,24,00,53,12.30
2021,08,24,00,54,12.30
2021,08,24,00,55,12.30
2021,08,24,00,56,12.30
2021,08,24,00,57,12.20
2021,08,24,00,58,12.20
2021,08,24,00,59,12.20
2021,08,24,01,00,12.20
2021,08,24,01,01,12.20
2021,08,24,01,02,12.20
2021,08,24,01,03,12.20
2021,08,24,01,04,12.10
2021,08,24,01,05,12.10
2021,08,24,01,06,12.10
2021,08,24,01,07,12.10
2021,08,24,01,08,12.10
2021,08,24,01,09,12.10
2021,08,24,01,10,12.10
2021,08,24,01,11,12.10
2021,08,24,01,12,12.10
2021,08,24,01,13,12.10
2021,08,24,01,14,12.10
2021,08,24,01,15,12.00
2021,08,24,01,16,12.00
2021,08,24,01,17,12.00
2021,08,24,01,18,12.00
2021,08,24,01,19,12.00
2021,08,24,01,20,12.00
2021,08,24,01,21,12.00
2021,08,24,01,22,12.00
2021,08,24,01,23,12.10
2021,08,24,01,24,12.10
2021,08,24,01,25,12.10
2021,08,24,01,26,12.10
2021,08,24,01,27,12.20
2021,08,24,01,28,12.20
2021,08,24,01,29,12.20
2021,08,24,01,30,12.30
2021,08,24,01,31,12.30
2021,08,24,01,32,12.40
2021,08,24,01,33,12.40
2021,08,24,01,34,12.50
2021,08,24,01,35,12.50
2021,08,24,01,36,12.50
2021,08,24,01,37,12.50
2021,08,24,01,38,12.50
2021,08,24,01,39,12.50
2021,08,24,01,40,12.50
2021,08,24,01,41,12.50
2021,08,24,01,42,12.40
2021,08,24,01,43,12.40
2021,08,24,01,44,12.40
2021,08,24,01,45,12.40
2021,08,24,01,46,12.30
2021,08,24,01,47,12.30
2021,08,24,01,48,12.30
2021,08,24,01,49,12.20
2021,08,24,01,50,12.20
2021,08,24,01,51,12.20
2021,08,24,01,52,12.10
2021,08,24,01,53,12.10
2021,08,24,01,54,12.10
2021,08,24,01,55,12.00
2021,08,24,01,56,12.00
2021,08,24,01,57,12.00
2021,08,24,01,58,11.90
2021,08,24,01,59,11.90
2021,08,24,02,00,11.90
2021,08,24,02,01,11.90
2021,08,24,02,02,11.90
2021,08,24,02,03,11.90
2021,08,24,02,04,11.90
2021,08,24,02,05,11.90
2021,08,24,02,06,11.90
2021,08,24,02,07,11.90
2021,08,24,02,08,11.90
2021,08,24,02,09,11.90
2021,08,24,02,10,11.90
2021,08,24,02,11,11.80
2021,08,24,02,12,11.80
2021,08,24,02,13,11.80
2021,08,24,02,14,11.70
2021,08,24,02,15,11.70
2021,08,24,02,16,11.70
2021,08,24,02,17,11.70
2021,08,24,02,18,11.70
2021,08,24,02,19,11.70
2021,08,24,02,20,11.70
2021,08,24,02,21,11.70
2021,08,24,02,22,11.80
2021,08,24,02,23,11.80
2021,08,24,02,24,11.80
2021,08,24,02,25,11.90
2021,08,24,02,26,11.90
2021,08,24,02,27,11.90
2021,08,24,02,28,12.00
2021,08,24,02,29,12.00
2021,08,24,02,30,12.00
2021,08,24,02,31,12.10
2021,08,24,02,32,12.10
2021,08,24,02,33,12.10
2021,08,24,02,34,12.10
2021,08,24,02,35,12.10
2021,08,24,02,36,12.10
2021,08,24,02,37,12.00
2021,08,24,02,38,12.00
2021,08,24,02,39,12.00
2021,08,24,02,40,11.90
2021,08,24,02,41,11.90
2021,08,24,02,42,11.90
2021,08,24,02,43,11.80
2021,08,24,02,44,11.80
2021,08,24,02,45,11.80
2021,08,24,02,46,11.70
2021,08,24,02,47,11.70
2021,08,24,02,48,11.70
2021,08,24,02,49,11.70
2021,08,24,02,50,11.70
2021,08,24,02,51,11.70
2021,08,24,02,52,11.70
2021,08,24,02,53,11.70
2021,08,24,02,54,11.70
2021,08,24,02,55,11.70
2021,08,24,02,56,11.70
2021,08,24,02,57,11.70
2021,08,24,02,58,11.60
2021,08,24,02,59,11.60
2021,08,24,03,00,11.60
2021,08,24,03,01,11.60
2021,08,24,03,02,11.60
2021,08,24,03,03,11.60
2021,08,24,03,04,11.50
2021,08,24,03,05,11.50
2021,08,24,03,06,11.50
2021,08,24,03,07,11.50
2021,08,24,03,08,11.40
2021,08,24,03,09,11.40
2021,08,24,03,10,11.40
2021,08,24,03,11,11.40
2021,08,24,03,12,11.30
2021,08,24,03,13,11.30
2021,08,24,03,14,11.30
2021,08,24,03,15,11.20
2021,08,24,03,16,11.20
2021,08,24,03,17,11.20
2021,08,24,03,18,11.10
2021,08,24,03,19,11.10
2021,08,24,03,20,11.10
2021,08,24,03,21,11.10
2021,08,24,03,22,11.00
2021,08,24,03,23,11.00
2021,08,24,03,24,11.00
2021,08,24,03,25,11.00
2021,08,24,03,26,11.10
2021,08,24,03,27,11.10
2021,08,24,03,28,11.20
2021,08,24,03,29,11.30
2021,08,24,03,30,11.30
2021,08,24,03,31,11.40
2021,08,24,03,32,11.50
2021,08,24,03,33,11.60
2021,08,24,03,34,11.60
2021,08,24,03,35,11.70
2021,08,24,03,36,11.70
2021,08,24,03,37,11.80
2021,08,24,03,38,11.80
2021,08,24,03,39,11.90
2021,08,24,03,40,11.90
2021,08,24,03,41,12.00
2021,08,24,03,42,12.00
2021,08,24,03,43,12.00
2021,08,24,03,44,12.00
2021,08,24,03,45,12.00
2021,08,24,03,46,12.00
2021,08,24,03,47,12.10
2021,08,24,03,48,12.10
2021,08,24,03,49,12.10
2021,08,24,03,50,12.10
2021,08,24,03,51,12.10
2021,08,24,03,52,12.10
2021,08,24,03,53,12.10
2021,08,24,03,54,12.10
2021,08,24,03,55,12.10
2021,08,24,03,56,12.10
2021,08,24,03,57,12.10
2021,08,24,03,58,12.10
2021,08,24,03,59,12.10
2021,08,24,04,00,12.10
2021,08,24,04,01,12.10
2021,08,24,04,02,12.10
2021,08,24,04,03,12.10
2021,08,24,04,04,12.10
2021,08,24,04,05,12.10
2021,08,24,04,06,12.10
2021,08,24,04,07,12.10
2021,08,24,04,08,12.10
2021,08,24,04,09,12.10
2021,08,24,04,10,12.20
2021,08,24,04,11,12.20
2021,08,24,04,12,12.20
2021,08,24,04,13,12.20
2021,08,24,04,14,12.20
2021,08,24,04,15,12.20
2021,08,24,04,16,12.20
2021,08,24,04,17,12.10
2021,08,24,04,18,12.10
2021,08,24,04,19,12.10
2021,08,24,04,20,12.10
2021,08,24,04,21,12.10
2021,08,24,04,22,12.10
2021,08,24,04,23,12.10
2021,08,24,04,24,12.10
2021,08,24,04,25,12.10
2021,08,24,04,26,12.10
2021,08,24,04,27,12.10
2021,08,24,04,28,12.00
2021,08,24,04,29,12.00
2021,08,24,04,30,12.00
2021,08,24,04,31,11.90
2021,08,24,04,32,11.90
2021,08,24,04,33,11.90
2021,08,24,04,34,11.80
2021,08,24,04,35,11.80
2021,08,24,04,36,11.80
2021,08,24,04,37,11.70
2021,08,24,04,38,11.70
2021,08,24,04,39,11.70
2021,08,24,04,40,11.60
2021,08,24,04,41,11.60
2021,08,24,04,42,11.60
2021,08,24,04,43,11.50
2021,08,24,04,44,11.50
2021,08,24,04,45,11.50
2021,08,24,04,46,11.40
2021,08,24,04,47,11.40
2021,08,24,04,48,11.30
2021,08,24,04,49,11.30
2021,08,24,04,50,11.30
2021,08,24,04,51,11.30
2021,08,24,04,52,11.30
2021,08,24,04,53,11.30
2021,08,24,04,54,11.20
2021,08,24,04,55,11.20
2021,08,24,04,56,11.20
2021,08,24,04,57,11.20
2021,08,24,04,58,11.20
2021,08,24,04,59,11.20
2021,08,24,05,00,11.20
2021,08,24,05,01,11.20
2021,08,24,05,02,11.20
2021,08,24,05,03,11.20
2021,08,24,05,04,11.20
2021,08,24,05,05,11.20
2021,08,24,05,06,11.20
2021,08,24,05,07,11.20
2021,08,24,05,08,11.20
2021,08,24,05,09,11.20
2021,08,24,05,10,11.20
2021,08,24,05,11,11.20
2021,08,24,05,12,11.20
2021,08,24,05,13,11.20
2021,08,24,05,14,11.20
2021,08,24,05,15,11.30
2021,08,24,05,16,11.30
2021,08,24,05,17,11.30
2021,08,24,05,18,11.30
2021,08,24,05,19,11.30
2021,08,24,05,20,11.30
2021,08,24,05,21,11.30
2021,08,24,05,22,11.20
2021,08,24,05,23,11.20
2021,08,24,05,24,11.20
2021,08,24,05,25,11.20
2021,08,24,05,26,11.20
2021,08,24,05,27,11.20
2021,08,24,05,28,11.20
2021,08,24,05,29,11.20
2021,08,24,05,30,11.20
2021,08,24,05,31,11.20
2021,08,24,05,32,11.20
2021,08,24,05,33,11.20
2021,08,24,05,34,11.20
2021,08,24,05,35,11.20
2021,08,24,05,36,11.10
2021,08,24,05,37,11.10
2021,08,24,05,38,11.10
2021,08,24,05,39,11.10
2021,08,24,05,40,11.20
2021,08,24,05,41,11.20
2021,08,24,05,42,11.20
2021,08,24,05,43,11.20
2021,08,24,05,44,11.20
2021,08,24,05,45,11.20
2021,08,24,05,46,11.20
2021,08,24,05,47,11.20
2021,08,24,05,48,11.30
2021,08,24,05,49,11.30
2021,08,24,05,50,11.30
2021,08,24,05,51,11.30
2021,08,24,05,52,11.30
2021,08,24,05,53,11.30
2021,08,24,05,54,11.30
2021,08,24,05,55,11.30
2021,08,24,05,56,11.30
2021,08,24,05,57,11.30
2021,08,24,05,58,11.30
2021,08,24,05,59,11.30
2021,08,24,06,00,11.30
2021,08,24,06,01,11.30
2021,08,24,06,02,11.30
2021,08,24,06,03,11.30
2021,08,24,06,04,11.30
2021,08,24,06,05,11.20
2021,08,24,06,06,11.20
2021,08,24,06,07,11.20
2021,08,24,06,08,11.20
2021,08,24,06,09,11.20
2021,08,24,06,10,11.20
2021,08,24,06,11,11.20
2021,08,24,06,12,11.10
2021,08,24,06,13,11.10
2021,08,24,06,14,11.10
2021,08,24,06,15,11.10
2021,08,24,06,16,11.00
2021,08,24,06,17,11.00
2021,08,24,06,18,10.90
2021,08,24,06,19,10.90
2021,08,24,06,20,10.90
2021,08,24,06,21,10.80
2021,08,24,06,22,10.80
2021,08,24,06,23,10.80
2021,08,24,06,24,10.80
2021,08,24,06,25,10.80
2021,08,24,06,26,10.70
2021,08,24,06,27,10.70
2021,08,24,06,28,10.70
2021,08,24,06,29,10.70
2021,08,24,06,30,10.70
2021,08,24,06,31,10.70
2021,08,24,06,32,10.70
2021,08,24,06,33,10.70
2021,08,24,06,34,10.60
2021,08,24,06,35,10.60
2021,08,24,06,36,10.60
2021,08,24,06,37,10.60
2021,08,24,06,38,10.60
2021,08,24,06,39,10.60
2021,08,24,06,40,10.60
2021,08,24,06,41,10.70
2021,08,24,06,42,10.70
2021,08,24,06,43,10.70
2021,08,24,06,44,10.70
2021,08,24,06,45,10.70
2021,08,24,06,46,10.70
2021,08,24,06,47,10.70
2021,08,24,06,48,10.70
2021,08,24,06,49,10.70
2021,08,24,06,50,10.70
2021,08,24,06,51,10.70
2021,08,24,06,52,10.70
2021,08,24,06,53,10.70
2021,08,24,06,54,10.70
2021,08,24,06,55,10.80
2021,08,24,06,56,10.80
2021,08,24,06,57,10.80
2021,08,24,06,58,10.80
2021,08,24,06,59,10.80
2021,08,24,07,00,10.80
2021,08,24,07,01,10.80
2021,08,24,07,02,10.90
2021,08,24,07,03,10.90
2021,08,24,07,04,10.90
2021,08,24,07,05,10.90
2021,08,24,07,06,10.90
2021,08,24,07,07,10.90
2021,08,24,07,08,10.90
2021,08,24,07,09,11.00
2021,08,24,07,10,11.00
2021,08,24,07,11,11.00
2021,08,24,07,12,11.10
2021,08,24,07,13,11.10
2021,08,24,07,14,11.10
2021,08,24,07,15,11.20
2021,08,24,07,16,11.20
2021,08,24,07,17,11.20
2021,08,24,07,18,11.20
2021,08,24,07,19,11.20
2021,08,24,07,20,11.30
2021,08,24,07,21,11.30
2021,08,24,07,22,11.30
2021,08,24,07,23,11.30
2021,08,24,07,24,11.30
2021,08,24,07,25,11.30
2021,08,24,07,26,11.30
2021,08,24,07,27,11.30
2021,08,24,07,28,11.30
2021,08,24,07,29,11.30
2021,08,24,07,30,11.40
2021,08,24,07,31,11.40
2021,08,24,07,32,11.40
2021,08,24,07,33,11.40
2021,08,24,07,34,11.40
2021,08,24,07,35,11.40
2021,08,24,07,36,11.40
2021,08,24,07,37,11.40
2021,08,24,07,38,11.50
2021,08,24,07,39,11.50
2021,08,24,07,40,11.50
2021,08,24,07,41,11.50
2021,08,24,07,42,11.50
2021,08,24,07,43,11.60
2021,08,24,07,44,11.60
2021,08,24,07,45,11.60
2021,08,24,07,46,11.60
2021,08,24,07,47,11.60
2021,08,24,07,48,11.60
2021,08,24,07,49,11.70
2021,08,24,07,50,11.70
2021,08,24,07,51,11.70
2021,08,24,07,52,11.70
2021,08,24,07,53,11.70
2021,08,24,07,54,11.70
2021,08,24,07,55,11.70
2021,08,24,07,56,11.70
2021,08,24,07,57,11.80
2021,08,24,07,58,11.80
2021,08,24,07,59,11.80
2021,08,24,08,00,11.80
2021,08,24,08,01,11.80
2021,08,24,08,02,11.80
2021,08,24,08,03,11.80
2021,08,24,08,04,11.80
2021,08,24,08,05,11.90
2021,08,24,08,06,11.90
2021,08,24,08,07,11.90
2021,08,24,08,08,12.00
2021,08,24,08,09,12.10
2021,08,24,08,10,12.10
2021,08,24,08,11,12.20
2021,08,24,08,12,12.20
2021,08,24,08,13,12.20
2021,08,24,08,14,12.20
2021,08,24,08,15,12.20
2021,08,24,08,16,12.20
2021,08,24,08,17,12.20
2021,08,24,08,18,12.20
2021,08,24,08,19,12.20
2021,08,24,08,20,12.30
2021,08,24,08,21,12.30
2021,08,24,08,22,12.40
2021,08,24,08,23,12.40
2021,08,24,08,24,12.50
2021,08,24,08,25,12.50
2021,08,24,08,26,12.60
2021,08,24,08,27,12.70
2021,08,24,08,28,12.70
2021,08,24,08,29,12.80
2021,08,24,08,30,12.80
2021,08,24,08,31,12.90
2021,08,24,08,32,12.90
2021,08,24,08,33,12.90
2021,08,24,08,34,12.90
2021,08,24,08,35,12.90
2021,08,24,08,36,12.90
2021,08,24,08,37,13.00
2021,08,24,08,38,12.90
2021,08,24,08,39,12.90
2021,08,24,08,40,12.90
2021,08,24,08,41,12.90
2021,08,24,08,42,12.90
2021,08,24,08,43,12.90
2021,08,24,08,44,13.00
2021,08,24,08,45,13.00
2021,08,24,08,46,13.00
2021,08,24,08,47,13.00
2021,08,24,08,48,13.00
2021,08,24,08,49,13.00
2021,08,24,08,50,13.00
2021,08,24,08,51,13.10
2021,08,24,08,52,13.10
2021,08,24,08,53,13.10
2021,08,24,08,54,13.10
2021,08,24,08,55,13.20
2021,08,24,08,56,13.20
2021,08,24,08,57,13.20
2021,08,24,08,58,13.20
2021,08,24,08,59,13.20
2021,08,24,09,00,13.30
2021,08,24,09,01,13.30
2021,08,24,09,02,13.30
2021,08,24,09,03,13.40
2021,08,24,09,04,13.40
2021,08,24,09,05,13.50
2021,08,24,09,06,13.50
2021,08,24,09,07,13.60
2021,08,24,09,08,13.70
2021,08,24,09,09,13.70
2021,08,24,09,10,13.80
2021,08,24,09,11,13.80
2021,08,24,09,12,13.90
2021,08,24,09,13,14.00
2021,08,24,09,14,14.00
2021,08,24,09,15,14.10
2021,08,24,09,16,14.10
2021,08,24,09,17,14.20
2021,08,24,09,18,14.30
2021,08,24,09,19,14.30
2021,08,24,09,20,14.40
2021,08,24,09,21,14.40
2021,08,24,09,22,14.50
2021,08,24,09,23,14.50
2021,08,24,09,24,14.50
2021,08,24,09,25,14.60
2021,08,24,09,26,14.60
2021,08,24,09,27,14.60
2021,08,24,09,28,14.70
2021,08,24,09,29,14.70
2021,08,24,09,30,14.70
2021,08,24,09,31,14.80
2021,08,24,09,32,14.80
2021,08,24,09,33,14.90
2021,08,24,09,34,15.00
2021,08,24,09,35,15.00
2021,08,24,09,36,15.10
2021,08,24,09,37,15.10
2021,08,24,09,38,15.20
2021,08,24,09,39,15.20
2021,08,24,09,40,15.30
2021,08,24,09,41,15.30
2021,08,24,09,42,15.30
2021,08,24,09,43,15.30
2021,08,24,09,44,15.30
2021,08,24,09,45,15.30
2021,08,24,09,46,15.30
2021,08,24,09,47,15.30
2021,08,24,09,48,15.30
2021,08,24,09,49,15.30
2021,08,24,09,50,15.30
2021,08,24,09,51,15.20
2021,08,24,09,52,15.20
2021,08,24,09,53,15.20
2021,08,24,09,54,15.20
2021,08,24,09,55,15.20
2021,08,24,09,56,15.20
2021,08,24,09,57,15.20
2021,08,24,09,58,15.20
2021,08,24,09,59,15.20
2021,08,24,10,00,15.30
2021,08,24,10,01,15.30
2021,08,24,10,02,15.30
2021,08,24,10,03,15.40
2021,08,24,10,04,15.40
2021,08,24,10,05,15.50
2021,08,24,10,06,15.60
2021,08,24,10,07,15.70
2021,08,24,10,08,15.70
2021,08,24,10,09,15.70
2021,08,24,10,10,15.70
2021,08,24,10,11,15.80
2021,08,24,10,12,15.80
2021,08,24,10,13,15.80
2021,08,24,10,14,15.80
2021,08,24,10,15,15.90
2021,08,24,10,16,15.90
2021,08,24,10,17,16.00
2021,08,24,10,18,16.10
2021,08,24,10,19,16.10
2021,08,24,10,20,16.20
2021,08,24,10,21,16.20
2021,08,24,10,22,16.30
2021,08,24,10,23,16.30
2021,08,24,10,24,16.30
2021,08,24,10,25,16.40
2021,08,24,10,26,16.40
2021,08,24,10,27,16.40
2021,08,24,10,28,16.40
2021,08,24,10,29,16.40
2021,08,24,10,30,16.40
2021,08,24,10,31,16.40
2021,08,24,10,32,16.50
2021,08,24,10,33,16.50
2021,08,24,10,34,16.50
2021,08,24,10,35,16.50
2021,08,24,10,36,16.60
2021,08,24,10,37,16.60
2021,08,24,10,38,16.60
2021,08,24,10,39,16.60
2021,08,24,10,40,16.60
2021,08,24,10,41,16.60
2021,08,24,10,42,16.70
2021,08,24,10,43,16.70
2021,08,24,10,44,16.80
2021,08,24,10,45,16.80
2021,08,24,10,46,16.80
2021,08,24,10,47,16.90
2021,08,24,10,48,16.90
2021,08,24,10,49,16.90
2021,08,24,10,50,16.90
2021,08,24,10,51,17.00
2021,08,24,10,52,17.00
2021,08,24,10,53,17.10
2021,08,24,10,54,17.10
2021,08,24,10,55,17.20
2021,08,24,10,56,17.30
2021,08,24,10,57,17.30
2021,08,24,10,58,17.40
2021,08,24,10,59,17.50
2021,08,24,11,00,17.60
2021,08,24,11,01,17.70
2021,08,24,11,02,17.70
2021,08,24,11,03,17.70
2021,08,24,11,04,17.80
2021,08,24,11,05,17.80
2021,08,24,11,06,17.90
2021,08,24,11,07,17.90
2021,08,24,11,08,18.00
2021,08,24,11,09,18.00
2021,08,24,11,10,18.10
2021,08,24,11,11,18.20
2021,08,24,11,12,18.20
2021,08,24,11,13,18.30
2021,08,24,11,14,18.40
2021,08,24,11,15,18.40
2021,08,24,11,16,18.40
2021,08,24,11,17,18.40
2021,08,24,11,18,18.40
2021,08,24,11,19,18.40
2021,08,24,11,20,18.40
2021,08,24,11,21,18.40
2021,08,24,11,22,18.30
2021,08,24,11,23,18.30
2021,08,24,11,24,18.30
2021,08,24,11,25,18.30
2021,08,24,11,26,18.30
2021,08,24,11,27,18.30
2021,08,24,11,28,18.40
2021,08,24,11,29,18.40
2021,08,24,11,30,18.50
2021,08,24,11,31,18.60
2021,08,24,11,32,18.60
2021,08,24,11,33,18.70
2021,08,24,11,34,18.70
2021,08,24,11,35,18.80
2021,08,24,11,36,18.90
2021,08,24,11,37,19.00
2021,08,24,11,38,19.00
2021,08,24,11,39,19.00
2021,08,24,11,40,19.10
2021,08,24,11,41,19.10
2021,08,24,11,42,19.20
2021,08,24,11,43,19.20
2021,08,24,11,44,19.30
2021,08,24,11,45,19.30
2021,08,24,11,46,19.40
2021,08,24,11,47,19.40
2021,08,24,11,48,19.50
2021,08,24,11,49,19.50
2021,08,24,11,50,19.60
2021,08,24,11,51,19.70
2021,08,24,11,52,19.70
2021,08,24,11,53,19.70
2021,08,24,11,54,19.80
2021,08,24,11,55,19.80
2021,08,24,11,56,19.90
2021,08,24,11,57,19.90
2021,08,24,11,58,19.80
2021,08,24,11,59,19.80
2021,08,24,12,00,19.80
2021,08,24,12,01,19.80
2021,08,24,12,02,19.80
2021,08,24,12,03,19.80
2021,08,24,12,04,19.90
2021,08,24,12,05,19.90
2021,08,24,12,06,19.90
2021,08,24,12,07,19.90
2021,08,24,12,08,19.90
2021,08,24,12,09,19.90
2021,08,24,12,10,19.90
2021,08,24,12,11,19.90
2021,08,24,12,12,19.90
2021,08,24,12,13,20.00
2021,08,24,12,14,20.00
2021,08,24,12,15,20.00
2021,08,24,12,16,20.10
2021,08,24,12,17,20.10
2021,08,24,12,18,20.10
2021,08,24,12,19,20.10
2021,08,24,12,20,20.10
2021,08,24,12,21,20.10
2021,08,24,12,22,20.10
2021,08,24,12,23,20.10
2021,08,24,12,24,20.10
2021,08,24,12,25,20.10
2021,08,24,12,26,20.10
2021,08,24,12,27,20.10
2021,08,24,12,28,20.20
2021,08,24,12,29,20.20
2021,08,24,12,30,20.20
2021,08,24,12,31,20.20
2021,08,24,12,32,20.20
2021,08,24,12,33,20.20
2021,08,24,12,34,20.20
2021,08,24,12,35,20.20
2021,08,24,12,36,20.20
2021,08,24,12,37,20.20
2021,08,24,12,38,20.20
2021,08,24,12,39,20.20
2021,08,24,12,40,20.20
2021,08,24,12,41,20.10
2021,08,24,12,42,20.10
2021,08,24,12,43,20.10
2021,08,24,12,44,20.00
2021,08,24,12,45,20.00
2021,08,24,12,46,19.90
2021,08,24,12,47,19.80
2021,08,24,12,48,19.80
2021,08,24,12,49,19.70
2021,08,24,12,50,19.70
2021,08,24,12,51,19.70
2021,08,24,12,52,19.70
2021,08,24,12,53,19.70
2021,08,24,12,54,19.70
2021,08,24,12,55,19.70
2021,08,24,12,56,19.80
2021,08,24,12,57,19.80
2021,08,24,12,58,19.90
2021,08,24,12,59,19.90
2021,08,24,13,00,20.00
2021,08,24,13,01,20.00
2021,08,24,13,02,20.10
2021,08,24,13,03,20.10
2021,08,24,13,04,20.20
2021,08,24,13,05,20.20
2021,08,24,13,06,20.20
2021,08,24,13,07,20.20
2021,08,24,13,08,20.30
2021,08,24,13,09,20.40
2021,08,24,13,10,20.40
2021,08,24,13,11,20.40
2021,08,24,13,12,20.40
2021,08,24,13,13,20.50
2021,08,24,13,14,20.50
2021,08,24,13,15,20.50
2021,08,24,13,16,20.50
2021,08,24,13,17,20.50
2021,08,24,13,18,20.50
2021,08,24,13,19,20.60
2021,08,24,13,20,20.60
2021,08,24,13,21,20.70
2021,08,24,13,22,20.70
2021,08,24,13,23,20.80
2021,08,24,13,24,20.80
2021,08,24,13,25,20.90
2021,08,24,13,26,21.00
2021,08,24,13,27,21.00
2021,08,24,13,28,21.00
2021,08,24,13,29,20.90
2021,08,24,13,30,20.90
2021,08,24,13,31,20.80
2021,08,24,13,32,20.70
2021,08,24,13,33,20.70
2021,08,24,13,34,20.60
2021,08,24,13,35,20.60
2021,08,24,13,36,20.70
2021,08,24,13,37,20.70
2021,08,24,13,38,20.70
2021,08,24,13,39,20.70
2021,08,24,13,40,20.70
2021,08,24,13,41,20.70
2021,08,24,13,42,20.70
2021,08,24,13,43,20.70
2021,08,24,13,44,20.80
2021,08,24,13,45,20.80
2021,08,24,13,46,20.80
2021,08,24,13,47,20.70
2021,08,24,13,48,20.70
2021,08,24,13,49,20.70
2021,08,24,13,50,20.70
2021,08,24,13,51,20.80
2021,08,24,13,52,20.80
2021,08,24,13,53,20.90
2021,08,24,13,54,20.90
2021,08,24,13,55,20.90
2021,08,24,13,56,20.90
2021,08,24,13,57,20.90
2021,08,24,13,58,20.80
2021,08,24,13,59,20.80
2021,08,24,14,00,20.70
2021,08,24,14,01,20.70
2021,08,24,14,02,20.60
2021,08,24,14,03,20.60
2021,08,24,14,04,20.60
2021,08,24,14,05,20.60
2021,08,24,14,06,20.60
2021,08,24,14,07,20.70
2021,08,24,14,08,20.80
2021,08,24,14,09,20.80
2021,08,24,14,10,20.90
2021,08,24,14,11,20.90
2021,08,24,14,12,20.90
2021,08,24,14,13,20.90
2021,08,24,14,14,20.90
2021,08,24,14,15,21.00
2021,08,24,14,16,21.00
2021,08,24,14,17,21.10
2021,08,24,14,18,21.10
2021,08,24,14,19,21.00
2021,08,24,14,20,21.00
2021,08,24,14,21,21.00
2021,08,24,14,22,21.00
2021,08,24,14,23,20.90
2021,08,24,14,24,20.90
2021,08,24,14,25,20.90
2021,08,24,14,26,20.90
2021,08,24,14,27,20.90
2021,08,24,14,28,20.90
2021,08,24,14,29,20.80
2021,08,24,14,30,20.80
2021,08,24,14,31,20.80
2021,08,24,14,32,20.80
2021,08,24,14,33,20.70
2021,08,24,14,34,20.70
2021,08,24,14,35,20.70
2021,08,24,14,36,20.80
2021,08,24,14,37,20.80
2021,08,24,14,38,20.80
2021,08,24,14,39,20.80
2021,08,24,14,40,20.90
2021,08,24,14,41,20.90
2021,08,24,14,42,20.90
2021,08,24,14,43,21.00
2021,08,24,14,44,21.00
2021,08,24,14,45,21.00
2021,08,24,14,46,21.10
2021,08,24,14,47,21.10
2021,08,24,14,48,21.20
2021,08,24,14,49,21.30
2021,08,24,14,50,21.30
2021,08,24,14,51,21.40
2021,08,24,14,52,21.40
2021,08,24,14,53,21.40
2021,08,24,14,54,21.40
2021,08,24,14,55,21.40
2021,08,24,14,56,21.40
2021,08,24,14,57,21.40
2021,08,24,14,58,21.40
2021,08,24,14,59,21.40
2021,08,24,15,00,21.40
2021,08,24,15,01,21.40
2021,08,24,15,02,21.50
2021,08,24,15,03,21.60
2021,08,24,15,04,21.60
2021,08,24,15,05,21.70
2021,08,24,15,06,21.70
2021,08,24,15,07,21.80
2021,08,24,15,08,21.80
2021,08,24,15,09,21.80
2021,08,24,15,10,21.80
2021,08,24,15,11,21.80
2021,08,24,15,12,21.80
2021,08,24,15,13,21.80
2021,08,24,15,14,21.80
2021,08,24,15,15,21.80
2021,08,24,15,16,21.80
2021,08,24,15,17,21.80
2021,08,24,15,18,21.80
2021,08,24,15,19,21.80
2021,08,24,15,20,21.80
2021,08,24,15,21,21.80
2021,08,24,15,22,21.80
2021,08,24,15,23,21.80
2021,08,24,15,24,21.70
2021,08,24,15,25,21.70
2021,08,24,15,26,21.70
2021,08,24,15,27,21.60
2021,08,24,15,28,21.60
2021,08,24,15,29,21.60
2021,08,24,15,30,21.60
2021,08,24,15,31,21.60
2021,08,24,15,32,21.60
2021,08,24,15,33,21.70
2021,08,24,15,34,21.70
2021,08,24,15,35,21.80
2021,08,24,15,36,21.90
2021,08,24,15,37,21.90
2021,08,24,15,38,22.00
2021,08,24,15,39,22.00
2021,08,24,15,40,22.00
2021,08,24,15,41,22.10
2021,08,24,15,42,22.10
2021,08,24,15,43,22.10
2021,08,24,15,44,22.10
2021,08,24,15,45,22.20
2021,08,24,15,46,22.20
2021,08,24,15,47,22.20
2021,08,24,15,48,22.20
2021,08,24,15,49,22.20
2021,08,24,15,50,22.20
2021,08,24,15,51,22.10
2021,08,24,15,52,22.10
2021,08,24,15,53,22.10
2021,08,24,15,54,22.10
2021,08,24,15,55,22.10
2021,08,24,15,56,22.10
2021,08,24,15,57,22.10
2021,08,24,15,58,22.10
2021,08,24,15,59,22.20
2021,08,24,16,00,22.20
2021,08,24,16,01,22.30
2021,08,24,16,02,22.30
2021,08,24,16,03,22.40
2021,08,24,16,04,22.40
2021,08,24,16,05,22.40
2021,08,24,16,06,22.40
2021,08,24,16,07,22.40
2021,08,24,16,08,22.40
2021,08,24,16,09,22.40
2021,08,24,16,10,22.40
2021,08,24,16,11,22.50
2021,08,24,16,12,22.50
2021,08,24,16,13,22.50
2021,08,24,16,14,22.60
2021,08,24,16,15,22.60
2021,08,24,16,16,22.60
2021,08,24,16,17,22.60
2021,08,24,16,18,22.60
2021,08,24,16,19,22.70
2021,08,24,16,20,22.70
2021,08,24,16,21,22.70
2021,08,24,16,22,22.70
2021,08,24,16,23,22.70
2021,08,24,16,24,22.70
2021,08,24,16,25,22.70
2021,08,24,16,26,22.70
2021,08,24,16,27,22.70
2021,08,24,16,28,22.70
2021,08,24,16,29,22.60
2021,08,24,16,30,22.60
2021,08,24,16,31,22.60
2021,08,24,16,32,22.50
2021,08,24,16,33,22.50
2021,08,24,16,34,22.50
2021,08,24,16,35,22.60
2021,08,24,16,36,22.60
2021,08,24,16,37,22.60
2021,08,24,16,38,22.70
2021,08,24,16,39,22.80
2021,08,24,16,40,22.80
2021,08,24,16,41,22.80
2021,08,24,16,42,22.80
2021,08,24,16,43,22.80
2021,08,24,16,44,22.80
2021,08,24,16,45,22.80
2021,08,24,16,46,22.80
2021,08,24,16,47,22.80
2021,08,24,16,48,22.80
2021,08,24,16,49,22.80
2021,08,24,16,50,22.80
2021,08,24,16,51,22.70
2021,08,24,16,52,22.70
2021,08,24,16,53,22.60
2021,08,24,16,54,22.60
2021,08,24,16,55,22.60
2021,08,24,16,56,22.60
2021,08,24,16,57,22.60
2021,08,24,16,58,22.60
2021,08,24,16,59,22.60
2021,08,24,17,00,22.60
2021,08,24,17,01,22.60
2021,08,24,17,02,22.60
2021,08,24,17,03,22.70
2021,08,24,17,04,22.70
2021,08,24,17,05,22.70
2021,08,24,17,06,22.80
2021,08,24,17,07,22.80
2021,08,24,17,08,22.90
2021,08,24,17,09,22.90
2021,08,24,17,10,23.00
2021,08,24,17,11,23.00
2021,08,24,17,12,23.00
2021,08,24,17,13,23.00
2021,08,24,17,14,22.90
2021,08,24,17,15,22.90
2021,08,24,17,16,22.90
2021,08,24,17,17,23.00
2021,08,24,17,18,23.00
2021,08,24,17,19,23.00